"Pseudo-MPEC" for C1FP8U5

Created 2026 Aug 26 0:35:03 UT using Find_Orb

Click here for an explanation of pseudo-MPECs

 
 Astrometry: 
     C1FP8U5*1C2026 08 21.36677823 45 46.368+13 32 23.35   ~8OFo 23.39GVNEOCPV00
     C1FP8U5 1C2026 08 21.37174123 45 46.501+13 32 26.48   ~8OFo 23.47GVNEOCPV00
     C1FP8U5 1C2026 08 21.37669723 45 46.627+13 32 29.54   ~8OFo 23.80GVNEOCPV00
     C1FP8U5 1C2026 08 21.38226123 45 46.764+13 32 33.11   ~8OFo 23.13GVNEOCPV00

Station data:
(V00) Kitt Peak-Bok  (N31.963125 W111.600190)  US/Arizona. Measurers T.
   Beuden, V. F. Carvajal, D. Fay, J. B. Fazekas, D. C. Fuls, A. R. Gibbs, A.
   D. Grauer, H. Gröller, J. K. Hogan, R. A. Kowalski, S. M. Larson, G. J.
   Leonard, D. Rankin, R. L. Seaman, F. C. Shelly, K. W. Wierzchoś. 2.25-m
   reflector + 4x4K mosaic CCD.

Orbital elements:  C1FP8U5
   Perihelion 2026 Nov 9.499976 +/- 43 TT = 11:59:57.8 (JD 2461353.999976)
Epoch 2026 Aug 21.0 TT = JDT 2461273.5   Earth MOID: 0.0087   Ve: 0.0263
M 323.995437684 +/- 30              (J2000 ecliptic)             AutoNEOCP
n   0.447261779 +/- 0.385           Peri.  271.939138 +/- 90
a   1.693407677 +/- 0.972           Node   181.526326 +/- 51
e   0.66443241 +/- 0.252            Incl.    9.588296 +/- 10
P   2.204/804.883d         H 23.91  G  0.15   U 12.1  SR
q 0.568252723 +/- 0.515    Q 2.818562632 +/- 45.9
From 4 observations 2026 Aug. 21 (22.3 min); mean residual 0".03
Residuals in arcseconds: 
260821 V00  .04-  .01+    260821 V00  .04+  .05-    
260821 V00  .05+  .01+    260821 V00  .04-  .03+    

Ephemerides (geocentric):
Date (UTC) HH   RA             Dec           delta  r     elong  mag " sig PA
---- --------  ------------   ------------  ------ ------ -----  --- --------
2026 08 26 01  23 48 24.199   +14 23 21.18  .32863 1.2972 146.4 23.2  48d  86
2026 08 26 02  23 48 25.626   +14 23 49.72  .32807 1.2967 146.4 23.2  49d  86
2026 08 26 03  23 48 27.053   +14 24 18.29  .32751 1.2963 146.5 23.2  49d  86
2026 08 26 04  23 48 28.482   +14 24 46.90  .32695 1.2958 146.5 23.2  49d  86
2026 08 26 05  23 48 29.911   +14 25 15.53  .32640 1.2954 146.5 23.2  49d  86
2026 08 26 06  23 48 31.340   +14 25 44.19  .32584 1.2949 146.5 23.2  50d  86
2026 08 26 07  23 48 32.771   +14 26 12.89  .32528 1.2945 146.6 23.2  50d  86
2026 08 26 08  23 48 34.202   +14 26 41.61  .32473 1.2940 146.6 23.2  50d  86
2026 08 26 09  23 48 35.634   +14 27 10.37  .32417 1.2936 146.6 23.2  50d  86
2026 08 26 10  23 48 37.067   +14 27 39.16  .32362 1.2931 146.6 23.2  50d  86
2026 08 26 11  23 48 38.501   +14 28 07.98  .32306 1.2927 146.7 23.2  50d  86
2026 08 26 12  23 48 39.935   +14 28 36.83  .32250 1.2923 146.7 23.2  50d  86
2026 08 26 13  23 48 41.370   +14 29 05.72  .32195 1.2918 146.7 23.2  50d  86
2026 08 26 14  23 48 42.806   +14 29 34.63  .32139 1.2914 146.7 23.2  50d  86
2026 08 26 15  23 48 44.243   +14 30 03.58  .32084 1.2909 146.8 23.2  50d  86
2026 08 26 16  23 48 45.681   +14 30 32.57  .32028 1.2905 146.8 23.2  51d  86
2026 08 26 17  23 48 47.119   +14 31 01.58  .31973 1.2900 146.8 23.2  51d  86
2026 08 26 18  23 48 48.558   +14 31 30.63  .31917 1.2896 146.8 23.2  51d  86
2026 08 26 19  23 48 49.999   +14 31 59.71  .31862 1.2891 146.9 23.1  51d  86
2026 08 26 20  23 48 51.440   +14 32 28.83  .31806 1.2887 146.9 23.1  52d  86
2026 08 26 21  23 48 52.882   +14 32 57.98  .31751 1.2882 146.9 23.1  52d  86
2026 08 26 22  23 48 54.325   +14 33 27.16  .31695 1.2878 146.9 23.1  52d  86
2026 08 26 23  23 48 55.769   +14 33 56.38  .31640 1.2873 147.0 23.1  52d  86
2026 08 27 00  23 48 57.214   +14 34 25.63  .31585 1.2869 147.0 23.1  53d  86
2026 08 27 01  23 48 58.660   +14 34 54.92  .31529 1.2864 147.0 23.1  53d  86
2026 08 27 02  23 49 00.106   +14 35 24.24  .31474 1.2860 147.1 23.1  52d  83
2026 08 27 03  23 49 01.554   +14 35 53.60  .31418 1.2855 147.1 23.1  52d  83
2026 08 27 04  23 49 03.003   +14 36 22.99  .31363 1.2851 147.1 23.1  52d  83
2026 08 27 05  23 49 04.453   +14 36 52.42  .31308 1.2846 147.1 23.1  52d  83
2026 08 27 06  23 49 05.903   +14 37 21.89  .31252 1.2842 147.2 23.1  52d  83
2026 08 27 07  23 49 07.355   +14 37 51.39  .31197 1.2837 147.2 23.1  52d  83
2026 08 27 08  23 49 08.808   +14 38 20.92  .31142 1.2833 147.2 23.1  52d  83
2026 08 27 09  23 49 10.262   +14 38 50.50  .31087 1.2828 147.2 23.1  52d  83
2026 08 27 10  23 49 11.717   +14 39 20.11  .31031 1.2824 147.3 23.1  52d  83
2026 08 27 11  23 49 13.173   +14 39 49.76  .30976 1.2819 147.3 23.1  52d  83
2026 08 27 12  23 49 14.630   +14 40 19.44  .30921 1.2815 147.3 23.1  52d  83
2026 08 27 13  23 49 16.089   +14 40 49.17  .30866 1.2810 147.3 23.1  52d  83
2026 08 27 14  23 49 17.548   +14 41 18.93  .30811 1.2806 147.4 23.1  52d  83
2026 08 27 15  23 49 19.008   +14 41 48.73  .30755 1.2801 147.4 23.0  53d  83
2026 08 27 16  23 49 20.470   +14 42 18.56  .30700 1.2797 147.4 23.0  53d  83
2026 08 27 17  23 49 21.933   +14 42 48.44  .30645 1.2792 147.4 23.0  53d  83
2026 08 27 18  23 49 23.397   +14 43 18.35  .30590 1.2788 147.5 23.0  53d  83
2026 08 27 19  23 49 24.862   +14 43 48.31  .30535 1.2783 147.5 23.0  53d  83
2026 08 27 20  23 49 26.329   +14 44 18.30  .30480 1.2779 147.5 23.0  53d  83
2026 08 27 21  23 49 27.796   +14 44 48.33  .30425 1.2774 147.5 23.0  53d  83
2026 08 27 22  23 49 29.265   +14 45 18.41  .30369 1.2770 147.6 23.0  53d  83
2026 08 27 23  23 49 30.736   +14 45 48.52  .30314 1.2765 147.6 23.0  53d  83
2026 08 28 00  23 49 32.207   +14 46 18.67  .30259 1.2761 147.6 23.0  53d  83